TimeMST,TemperatureF,Dew PointF,Humidity,Sea Level PressureIn,VisibilityMPH,Wind Direction,Wind SpeedMPH,Gust SpeedMPH,PrecipitationIn,Events,Conditions,WindDirDegrees,DateUTC
12:51 AM,72.0,37.9,29,29.73,10.0,East,5.8,-,N/A,,Overcast,90,2013-03-21 07:51:00
1:51 AM,71.1,37.9,30,29.73,10.0,NE,4.6,-,N/A,,Overcast,50,2013-03-21 08:51:00
2:51 AM,68.0,41.0,37,29.71,10.0,East,4.6,-,N/A,,Overcast,80,2013-03-21 09:51:00
3:51 AM,68.0,41.0,37,29.71,10.0,NE,4.6,-,N/A,,Overcast,50,2013-03-21 10:51:00
4:51 AM,66.0,39.9,38,29.70,10.0,ESE,5.8,-,N/A,,Overcast,110,2013-03-21 11:51:00
5:51 AM,66.0,41.0,40,29.71,10.0,East,4.6,-,N/A,,Overcast,90,2013-03-21 12:51:00
6:51 AM,66.0,39.9,38,29.72,10.0,East,4.6,-,N/A,,Overcast,90,2013-03-21 13:51:00
7:51 AM,66.9,39.9,37,29.74,10.0,East,3.5,-,N/A,,Overcast,100,2013-03-21 14:51:00
8:51 AM,71.1,39.0,31,29.73,10.0,Calm,Calm,-,N/A,,Overcast,0,2013-03-21 15:51:00
9:51 AM,75.0,36.0,24,29.74,10.0,North,3.5,-,N/A,,Overcast,360,2013-03-21 16:51:00
10:51 AM,78.1,35.1,21,29.74,10.0,Calm,Calm,-,N/A,,Overcast,0,2013-03-21 17:51:00
11:51 AM,79.0,33.1,19,29.73,10.0,North,3.5,-,N/A,,Overcast,350,2013-03-21 18:51:00
12:51 PM,82.0,30.9,16,29.71,10.0,West,9.2,-,N/A,,Overcast,280,2013-03-21 19:51:00
1:51 PM,84.9,30.0,14,29.68,10.0,WSW,8.1,-,N/A,,Overcast,240,2013-03-21 20:51:00
2:51 PM,84.9,30.0,14,29.65,10.0,West,11.5,17.3,N/A,,Overcast,280,2013-03-21 21:51:00
3:51 PM,84.9,28.9,13,29.63,10.0,West,11.5,20.7,N/A,,Overcast,270,2013-03-21 22:51:00
4:51 PM,84.0,27.0,13,29.63,10.0,West,9.2,-,N/A,,Overcast,280,2013-03-21 23:51:00
5:51 PM,82.9,23.0,11,29.62,10.0,West,9.2,-,N/A,,Mostly Cloudy,260,2013-03-22 00:51:00
6:51 PM,81.0,26.1,13,29.62,10.0,SW,6.9,-,N/A,,Mostly Cloudy,230,2013-03-22 01:51:00
7:51 PM,79.0,28.9,16,29.63,10.0,SSW,4.6,-,N/A,,Mostly Cloudy,200,2013-03-22 02:51:00
8:51 PM,80.1,28.9,15,29.63,10.0,West,8.1,-,N/A,,Mostly Cloudy,270,2013-03-22 03:51:00
9:51 PM,75.9,32.0,20,29.64,10.0,WSW,4.6,-,N/A,,Mostly Cloudy,250,2013-03-22 04:51:00
10:51 PM,75.9,32.0,20,29.64,10.0,WNW,4.6,-,N/A,,Mostly Cloudy,300,2013-03-22 05:51:00
11:51 PM,71.1,36.0,28,29.63,10.0,East,6.9,-,N/A,,Mostly Cloudy,80,2013-03-22 06:51:00